Location: Calvatone
(45.1167°N, 10.4333°E)
Time: 09:08:09
(UTC+00:00)

METEOR M2 - Pass Details

Date: 11 December 2023
Orbit: 818 x 826 km, 98.4° (Epoch: 24 February)

Event Time Altitude Azimuth Distance (km) Brightness Sun altitude
Rises 04:37:26 0° 20° (NNE) 3,368 ? -21.8°
Reaches altitude 10° 04:39:57 10° 27° (NNE) 2,429 ? -21.4°
Maximum altitude 04:45:01 41° 98° (E) 1,179 ? -20.5°
Drops below altitude 10° 04:50:01 10° 168° (SSE) 2,408 ? -19.7°
Sets 04:52:29 0° 175° (S) 3,335 ? -19.3°
